Regional Weather Roundup
Issued by NWS

Home | Current Version | Previous Version | Text Only | Print | Product List | Glossary On
Versions: 1 2 3 4 5 6 7 8 9 10 11 12 13 14 15 16 17 18 19 20 21 22 23 24 25 26 27 28 29 30 31 32 33 34 35 36 37 38 39 40 41 42 43 44 45 46 47 48 49 50
000
ASUS43 KMKX 310810
RWRWI

WISCONSIN REGIONAL WEATHER ROUNDUP
NATIONAL WEATHER SERVICE MILWAUKEE/SULLIVAN WI
300 AM CDT MON AUG 31 2015

NOTE: "FAIR" INDICATES FEW OR NO CLOUDS BELOW 12,000 FEET WITH NO
SIGNIFICANT WEATHER AND/OR OBSTRUCTIONS TO VISIBILITY.

WIZ001-002-006>008-014>016-023>028-310900-
NORTHWEST WISCONSIN

CITY           SKY/WX    TMP DP  RH WIND       PRES   REMARKS
SUPERIOR ARPT  CLOUDY    65  65  97 CALM      29.88S
ASHLAND        FAIR      65  65 100 S7        29.92R
HAYWARD        MOCLDY    64  62  93 S8        29.96R
SIREN          FAIR      65  64  94 S3        29.93S
CUMBERLAND     CLOUDY    59  59 100 S5        29.96S FOG
RICE LAKE      MOCLDY    61  60  95 SE5       29.98S FOG
CHETEK         FAIR     N/A N/A N/A E5        29.98S
LADYSMITH      FOG       64  63  96 S5        30.01R VSB 1
EAU CLAIRE     FAIR      62  60  93 S5        29.97S
MENOMONIE      FOG       59  59  99 SE6       29.98S VSB 1/2
NEW RICHMOND   FAIR      63  62  99 S5        29.96R
OSCEOLA        FAIR      63  63 100 SE6       29.96S
$$

WIZ003>005-009-010-017-018-310900-
NORTH CENTRAL WISCONSIN

CITY           SKY/WX    TMP DP  RH WIND       PRES   REMARKS
MANITOWISH WTR CLOUDY    64  64 100 SW8       29.99R
ARBOR VITAE    CLOUDY    64  63  97 SW5       30.00R FOG
WOODRUFF       CLOUDY    64  63  97 SW5       30.00R FOG
RHINELANDER    FOG       63  62  97 SW6       30.02R VSB 1
EAGLE RIVER    CLOUDY    64  63  98 SW7       30.00R
LAND O LAKES   CLOUDY    64  64  97 SW5       30.00R
PHILLIPS       CLOUDY    64  64 100 SW8       29.99S
TOMAHAWK       CLOUDY    63  62  97 W3        30.02R FOG
MEDFORD        FOG       61  61 100 SW5       30.02R VSB 1/4
MERRILL        CLOUDY    62  62 100 SW3       30.02S FOG
$$

WIZ029-030-035-036-043>047-310900-
CENTRAL WISCONSIN

CITY           SKY/WX    TMP DP  RH WIND       PRES   REMARKS
WAUSAU         FAIR      64  62  93 SW10      30.00S
MOSINEE        FOG       57  57 100 SW3       30.02S VSB 1/4
MARSHFIELD     FOG       61  58  90 SW3       30.01S VSB 1/4
STEVENS POINT  FOG       57  57  99 CALM      30.02S VSB 1/4
WAUPACA        FOG       59  58  97 CALM      30.02R VSB 1/4
WAUTOMA        FOG       60  60 100 CALM      30.02S VSB 1/4
WISC RAPIDS    FAIR      61  59  94 SW3       30.03R FOG
CAMP DOUGLAS   FOG       54  54 100 SE2       30.01S VSB 1/4
$$

WIZ011>013-019>022-031-037>040-048>050-310900-
NORTHEAST WISCONSIN

CITY           SKY/WX    TMP DP  RH WIND       PRES   REMARKS
ANTIGO         FOG       61  61 100 W6        30.02S VSB 3/4
SHAWANO        FAIR      64  62  95 CALM      30.00R
OCONTO         FAIR      60  60 100 SW3       29.98S
STURGEON BAY   FAIR      64  59  82 SW7       30.01S
GREEN BAY      FAIR      63  61  93 SW5       30.00S FOG
MANITOWOC      FOG       59  59 100 MISG      30.01S VSB 1/4
APPLETON       FAIR      61  61 100 SW7       30.01R
CLINTONVILLE   FOG       59  59 100 SW5       30.01R VSB 1
OSHKOSH        FAIR      62  60  93 SW3       30.01R
$$

WIZ032>034-041-042-053>061-310900-
SOUTHWEST WISCONSIN

CITY           SKY/WX    TMP DP  RH WIND       PRES   REMARKS
LA CROSSE      MOCLDY    63  62  97 S6        30.00S FOG
SPARTA         FAIR      55  53  95 CALM      30.02S
VIROQUA          N/A     60  60 100 CALM      30.03R VSB 1/2
BOSCOBEL       FOG       59  58  96 CALM      30.02S VSB 1/4
PRAIRIE DU CHI CLOUDY    60  59  96 CALM      30.01S FOG
PLATTEVILLE    FAIR      61  61 100 S3        30.03S
$$

WIZ056-057-062-063-064-067-068-310900-
SOUTH CENTRAL WISCONSIN

CITY           SKY/WX    TMP DP  RH WIND       PRES   REMARKS
REEDSBURG      FAIR      60  60 100 CALM      30.02S FOG
BARABOO/DELLS  FOG       60  58  95 CALM      30.02S VSB 1/2
LONE ROCK      FOG       58  57  97 CALM      30.03S VSB 1/4
MINERAL POINT  FAIR      63  63 100 S5        30.04S FOG
MADISON        FOG       60  59  96 CALM      30.02S VSB 1/4
MIDDLETON      CLOUDY    57  57 100 CALM      30.03S VSB 1/4
WATERTOWN      FOG       56  56 100 CALM      30.03R VSB 3/4
MONROE         FAIR      61  61 100 SW7       30.04R FOG
JANESVILLE     FOG       59  55  88 CALM      30.03R VSB 1/4
$$

WIZ051-052-058>065-066-070>072-310900-
SOUTHEAST WISCONSIN

CITY           SKY/WX    TMP DP  RH WIND       PRES   REMARKS
MILWAUKEE      FAIR      61  60  97 SW6       30.03R FOG
WAUKESHA       FAIR      59  59 100 CALM      30.04S FOG
MILWAUKEE/TIMM FAIR      59  55  88 CALM      30.03S FOG
RACINE         FAIR      61  59  93 SW3       30.05R FOG
BURLINGTON     FOG       55  55  99 CALM      30.03S VSB 1/2
KENOSHA        FOG       59  58  96 S3        30.04R VSB 1/4
FOND DU LAC    FAIR      61  60  97 CALM      30.02R FOG
SHEBOYGAN      FAIR      58  58 100 SW5       30.01S FOG
WEST BEND      FAIR      57  55  94 CALM      30.03R FOG
JUNEAU         FOG       58  58  99 CALM      30.04R VSB<1/4
$$

LSZ147-162-310900-
LAKE SUPERIOR

STATION/POSITION TIME  TEMP    WIND        PRES    WAVE
                       AIR SEA DIR/SP/G            HT/PER
                 (UTC) (F)     (DEG/KT/KT) (MB)    (FT/S)
$$

LMZ867-665-643>646-310900-
LAKE MICHIGAN

STATION/POSITION TIME  TEMP    WIND        PRES    WAVE
                       AIR SEA DIR/SP/G            HT/PER
                 (UTC) (F)     (DEG/KT/KT) (MB)    (FT/S)
$$

TC  - TEMPERATURE IN CELSIUS
VSB - VISIBILITY IN STATUTE MILES
WCI - WIND CHILL INDEX
HX  - HEAT INDEX




USA.gov is the U.S. government's official web portal to all federal, state and local government web resources and services.